GW6539 Weather Reports


time (UTC)temp
C
wind
direction
speed
KPH
gust
KPH
rain 1hr
cm
rain 24hr
cm
rain mn
cm
humidity
%
barometer
mb
20260506033916 29 125 14.5 20.9 0.00 0.05 0.05 80 1011.1
20260506033414 29 115 6.4 11.3 0.00 0.05 0.05 79 1011.1
20260506032910 29 119 9.7 19.3 0.00 0.05 0.05 77 1011.1
20260506032407 30 93 14.5 19.3 0.00 0.05 0.05 74 1011.1
20260506031904 30 85 14.5 20.9 0.00 0.05 0.05 73 1011.1
20260506031401 30 90 16.1 25.7 0.00 0.05 0.05 73 1011.1
20260506030859 30 52 17.7 27.4 0.00 0.05 0.05 72 1011.1
20260506030357 30 55 19.3 24.1 0.00 0.05 0.05 71 1011.1
20260506025853 30 63 22.5 30.6 0.00 0.05 0.05 70 1011.1
20260506025350 30 46 14.5 20.9 0.00 0.05 0.05 72 1011.5
20260506024847 30 47 11.3 17.7 0.00 0.05 0.05 72 1011.1
20260506024344 30 58 19.3 29.0 0.00 0.05 0.05 72 1011.1
20260506023840 31 76 17.7 22.5 0.00 0.05 0.05 71 1011.1
20260506023337 30 58 22.5 27.4 0.00 0.05 0.05 71 1011.5
20260506022833 31 57 17.7 20.9 0.00 0.05 0.05 69 1011.1
20260506022331 31 76 22.5 27.4 0.00 0.05 0.05 70 1011.5
20260506021829 30 97 16.1 22.5 0.00 0.05 0.05 71 1011.5
20260506021327 30 86 19.3 24.1 0.00 0.05 0.05 71 1011.5
20260506020823 30 113 12.9 16.1 0.00 0.05 0.05 71 1011.5
20260506020321 30 77 19.3 25.7 0.00 0.05 0.05 71 1011.5
20260506015819 30 83 14.5 25.7 0.00 0.05 0.05 71 1011.5
20260506015316 30 104 19.3 25.7 0.00 0.05 0.05 71 1011.8
20260506014812 30 104 14.5 17.7 0.00 0.05 0.05 73 1011.8
20260506014309 30 96 16.1 20.9 0.00 0.05 0.05 74 1011.8
20260506013805 30 91 17.7 24.1 0.00 0.05 0.05 72 1011.8
20260506013303 30 100 17.7 24.1 0.00 0.05 0.05 73 1011.8
20260506012759 30 88 19.3 24.1 0.00 0.05 0.05 73 1011.8
20260506012256 30 80 20.9 24.1 0.00 0.05 0.05 71 1011.8
20260506011753 30 77 19.3 24.1 0.00 0.05 0.05 72 1012.2
20260506011249 30 86 19.3 25.7 0.00 0.05 0.05 74 1012.2
20260506010748 30 71 19.3 24.1 0.00 0.05 0.05 74 1012.2
20260506010245 30 79 17.7 24.1 0.00 0.05 0.05 73 1011.8
20260506005742 30 89 12.9 17.7 0.00 0.05 0.05 74 1012.5
20260506005239 30 96 17.7 25.7 0.00 0.05 0.05 71 1012.2
20260506004734 30 68 16.1 20.9 0.00 0.05 0.05 73 1012.5
20260506004232 29 79 20.9 25.7 0.00 0.05 0.05 76 1012.5
20260506003728 29 93 17.7 24.1 0.00 0.05 0.05 77 1012.5
20260506003225 30 80 22.5 25.7 0.00 0.05 0.05 75 1012.5
20260506002721 30 73 19.3 24.1 0.00 0.05 0.05 75 1012.5
20260506002217 29 59 20.9 27.4 0.00 0.05 0.05 76 1012.5
20260506001713 29 68 20.9 25.7 0.00 0.05 0.05 76 1012.5
20260506001211 29 74 22.5 25.7 0.00 0.05 0.05 75 1012.5
20260506000707 29 72 20.9 25.7 0.00 0.05 0.05 76 1012.8
20260506000205 29 88 11.3 17.7 0.00 0.05 0.05 78 1012.5
20260505235703 28 66 16.1 19.3 0.00 0.05 0.05 79 1012.8
20260505235200 29 102 17.7 24.1 0.00 0.05 0.05 78 1012.8
20260505234657 30 89 16.1 20.9 0.00 0.05 0.05 76 1012.8
20260505234154 29 100 12.9 16.1 0.00 0.05 0.05 77 1012.8
20260505233650 29 101 17.7 27.4 0.00 0.05 0.05 77 1012.8
20260505233148 29 109 14.5 17.7 0.00 0.05 0.05 77 1012.8
20260505232646 29 73 19.3 25.7 0.00 0.05 0.05 76 1012.8
20260505232143 29 63 20.9 27.4 0.00 0.05 0.05 78 1012.8
20260505231639 28 79 19.3 22.5 0.00 0.05 0.05 79 1012.8
20260505231139 28 78 14.5 17.7 0.00 0.05 0.05 78 1012.8
20260505230636 28 55 16.1 22.5 0.00 0.05 0.05 79 1012.8
20260505230132 28 88 12.9 17.7 0.00 0.05 0.05 80 1012.8
20260505225628 28 74 16.1 24.1 0.00 0.05 0.05 79 1012.5
20260505225125 28 91 16.1 20.9 0.00 0.05 0.05 79 1012.5
20260505224622 29 71 20.9 25.7 0.00 0.05 0.05 78 1012.5
20260505224119 29 94 17.7 22.5 0.00 0.05 0.05 77 1012.5
20260505223616 29 98 19.3 27.4 0.00 0.05 0.05 77 1012.5
20260505223112 29 73 17.7 20.9 0.00 0.05 0.05 77 1012.2
20260505222609 29 89 14.5 20.9 0.00 0.05 0.05 77 1012.2
20260505222105 28 91 19.3 24.1 0.00 0.05 0.05 77 1012.2
20260505221602 28 90 16.1 20.9 0.00 0.05 0.05 78 1012.2
20260505221058 28 80 12.9 17.7 0.00 0.05 0.05 79 1012.2
20260505220556 28 100 14.5 20.9 0.00 0.05 0.05 82 1012.2
20260505220054 27 90 12.9 17.7 0.00 0.05 0.05 83 1012.2
20260505215552 27 87 11.3 14.5 0.00 0.05 0.05 83 1012.2
20260505215049 27 83 12.9 16.1 0.00 0.05 0.05 83 1012.2
20260505214547 27 77 12.9 16.1 0.00 0.05 0.05 83 1012.2
20260505214044 28 97 11.3 17.7 0.00 0.05 0.05 83 1011.8
20260505213542 27 80 9.7 14.5 0.00 0.05 0.05 84 1012.2
20260505213037 27 76 9.7 12.9 0.00 0.05 0.05 85 1011.8
20260505212534 27 78 11.3 14.5 0.00 0.05 0.05 86 1011.8
20260505212032 27 70 9.7 11.3 0.00 0.05 0.05 86 1011.8
20260505211529 27 68 9.7 12.9 0.00 0.05 0.05 86 1011.8
20260505211025 27 78 11.3 14.5 0.00 0.05 0.05 86 1011.8
20260505210522 27 62 6.4 8.0 0.00 0.05 0.05 86 1011.8
20260505210019 27 63 8.0 9.7 0.00 0.05 0.05 86 1011.8
20260505205517 27 91 6.4 9.7 0.00 0.05 0.05 87 1011.8
20260505205014 26 60 8.0 11.3 0.00 0.05 0.05 87 1011.5
20260505204512 26 83 6.4 8.0 0.00 0.05 0.05 87 1011.8
20260505204009 26 65 8.0 11.3 0.00 0.05 0.05 87 1011.8
20260505203505 26 70 8.0 9.7 0.00 0.05 0.05 86 1011.5
20260505203001 26 83 8.0 9.7 0.00 0.05 0.05 87 1011.5
20260505202458 26 78 8.0 9.7 0.00 0.05 0.05 87 1011.5
20260505201954 26 87 8.0 9.7 0.00 0.05 0.05 87 1011.5
20260505201451 26 108 4.8 6.4 0.00 0.05 0.05 87 1011.5
20260505200949 26 93 4.8 4.8 0.00 0.05 0.05 87 1011.5
20260505200447 26 80 4.8 8.0 0.00 0.05 0.05 87 1011.5
20260505195942 26 103 1.6 3.2 0.00 0.05 0.05 87 1011.1
20260505195439 26 69 4.8 8.0 0.00 0.05 0.05 86 1011.1
20260505194937 26 76 4.8 6.4 0.00 0.05 0.05 86 1011.1
20260505194434 26 80 3.2 4.8 0.00 0.05 0.05 86 1011.1
20260505193934 26 58 6.4 8.0 0.00 0.05 0.05 86 1011.1
20260505193432 26 93 6.4 9.7 0.00 0.05 0.05 86 1011.1
20260505192929 26 72 6.4 6.4 0.00 0.05 0.05 86 1011.1
20260505192428 26 79 6.4 8.0 0.00 0.05 0.05 85 1010.8
20260505191925 26 82 6.4 8.0 0.00 0.05 0.05 85 1011.1
20260505191423 27 72 8.0 9.7 0.00 0.05 0.05 85 1010.8
20260505190920 27 69 9.7 11.3 0.00 0.05 0.05 85 1010.8
20260505190415 27 71 9.7 11.3 0.00 0.05 0.05 84 1010.8
20260505185910 27 78 11.3 14.5 0.00 0.05 0.05 85 1010.8
20260505185408 27 70 9.7 12.9 0.00 0.05 0.05 84 1010.8
20260505184904 27 76 9.7 14.5 0.00 0.05 0.05 84 1010.8
20260505184401 27 73 11.3 14.5 0.00 0.05 0.05 83 1010.5
20260505183858 27 76 14.5 20.9 0.00 0.05 0.05 84 1010.8
20260505183355 27 79 11.3 16.1 0.00 0.05 0.05 84 1010.8
20260505182851 27 77 9.7 11.3 0.00 0.05 0.05 85 1010.8
20260505182348 27 83 8.0 11.3 0.00 0.05 0.05 85 1010.8
20260505181845 27 81 8.0 9.7 0.00 0.05 0.05 85 1010.8
20260505181342 26 96 8.0 11.3 0.00 0.05 0.05 86 1010.8
20260505180839 26 78 6.4 8.0 0.00 0.05 0.05 86 1010.8
20260505180335 26 56 4.8 6.4 0.00 0.05 0.05 86 1010.8
20260505175832 26 65 6.4 8.0 0.00 0.05 0.05 86 1010.8
20260505175328 26 63 8.0 9.7 0.00 0.05 0.05 85 1010.8
20260505174825 26 64 9.7 11.3 0.00 0.05 0.05 85 1010.8
20260505174322 26 74 11.3 14.5 0.00 0.05 0.05 85 1010.8
20260505173818 26 70 9.7 11.3 0.00 0.05 0.05 85 1011.1
20260505173315 26 75 6.4 8.0 0.00 0.05 0.05 85 1011.1
20260505172812 26 79 8.0 11.3 0.00 0.05 0.05 86 1011.1
20260505172310 26 81 11.3 14.5 0.00 0.05 0.05 86 1011.1
20260505171804 26 78 9.7 11.3 0.00 0.05 0.05 87 1011.1
20260505171301 26 78 9.7 11.3 0.00 0.05 0.05 87 1011.1
20260505170757 27 85 8.0 11.3 0.00 0.05 0.05 87 1011.1
20260505170255 27 75 9.7 14.5 0.00 0.05 0.05 87 1011.1
20260505165749 27 72 9.7 11.3 0.00 0.05 0.05 87 1011.1
20260505165246 27 77 11.3 14.5 0.00 0.05 0.05 87 1011.5
20260505164741 27 76 11.3 14.5 0.00 0.05 0.05 87 1011.5
20260505164239 27 75 6.4 9.7 0.00 0.05 0.05 87 1011.5
20260505163737 27 69 8.0 11.3 0.00 0.05 0.05 86 1011.5
20260505163235 27 76 9.7 14.5 0.00 0.05 0.05 86 1011.5
20260505162732 27 52 8.0 9.7 0.00 0.00 0.00 85 1011.5
20260505162229 27 75 9.7 11.3 0.00 0.00 0.00 85 1011.5
20260505161726 27 76 8.0 9.7 0.00 0.00 0.00 85 1011.5
20260505161224 27 72 8.0 9.7 0.00 0.00 0.00 84 1011.5
20260505160721 27 63 9.7 11.3 0.00 0.00 0.00 84 1011.8
20260505160218 27 74 6.4 9.7 0.00 0.00 0.00 84 1011.8
20260505153157 27 85 11.3 14.5 0.00 0.00 0.00 83 1011.8
20260505152654 27 98 8.0 11.3 0.00 0.00 0.00 82 1011.8
20260505152150 27 95 9.7 12.9 0.00 0.00 0.00 82 1011.8
20260505151645 27 87 8.0 11.3 0.00 0.00 0.00 82 1011.8
20260505151143 27 88 9.7 12.9 0.00 0.00 0.00 82 1011.8
20260505150639 27 92 9.7 12.9 0.00 0.00 0.00 82 1011.8
20260505150136 27 78 8.0 11.3 0.00 0.00 0.00 81 1012.2
20260505140605 27 87 16.1 24.1 0.00 0.00 0.00 84 1012.5
20260505125018 27 81 12.9 17.7 0.00 0.08 0.08 84 1012.5
20260505124515 27 101 16.1 20.9 0.00 0.08 0.08 84 1012.5
20260505124011 27 84 14.5 20.9 0.00 0.08 0.08 85 1012.5
20260505123508 27 98 12.9 16.1 0.00 0.08 0.08 85 1012.5
20260505123004 27 99 8.0 11.3 0.00 0.08 0.08 85 1012.5
20260505122501 27 93 12.9 16.1 0.00 0.08 0.08 86 1012.5
20260505121958 27 88 12.9 17.7 0.00 0.08 0.08 87 1012.5
20260505121454 27 79 11.3 12.9 0.00 0.08 0.08 87 1012.5
20260505120950 27 81 8.0 14.5 0.00 0.08 0.08 87 1012.5
20260505120447 27 71 9.7 11.3 0.00 0.08 0.08 87 1012.5
20260505115946 27 79 11.3 12.9 0.00 0.08 0.08 86 1012.2
20260505115443 27 61 9.7 16.1 0.00 0.08 0.08 86 1012.5
20260505114941 27 72 11.3 14.5 0.00 0.08 0.08 85 1012.5
20260505114437 27 83 11.3 14.5 0.00 0.08 0.08 85 1012.2
20260505113934 27 88 9.7 12.9 0.00 0.08 0.08 85 1012.2
20260505113430 27 99 8.0 9.7 0.00 0.08 0.08 85 1012.2
20260505112926 27 98 9.7 11.3 0.00 0.08 0.08 85 1012.2
20260505112424 27 109 8.0 11.3 0.00 0.08 0.08 84 1012.2
20260505111920 27 93 12.9 17.7 0.00 0.08 0.08 84 1012.2
20260505111415 27 91 12.9 17.7 0.00 0.08 0.08 84 1012.2
20260505110912 27 90 9.7 12.9 0.00 0.08 0.08 85 1012.2
20260505110409 27 83 11.3 16.1 0.00 0.08 0.08 85 1012.2
20260505101839 27 105 9.7 11.3 0.00 0.08 0.08 84 1011.5
20260505101334 27 94 12.9 16.1 0.00 0.08 0.08 85 1011.5
20260505100830 27 94 8.0 12.9 0.00 0.08 0.08 86 1011.5
20260505100327 27 97 8.0 9.7 0.00 0.08 0.08 85 1011.5
20260505095822 27 99 6.4 9.7 0.00 0.08 0.08 85 1011.1
20260505095320 27 92 8.0 9.7 0.00 0.08 0.08 85 1011.5
20260505094816 27 116 8.0 9.7 0.00 0.08 0.08 84 1011.1
20260505094313 27 99 8.0 9.7 0.00 0.08 0.08 84 1011.1
20260505093808 27 91 8.0 11.3 0.00 0.08 0.08 84 1011.1
20260505093307 27 88 9.7 12.9 0.00 0.08 0.08 83 1011.1
20260505092803 27 99 9.7 11.3 0.00 0.08 0.08 83 1011.1
20260505092304 27 81 11.3 14.5 0.00 0.08 0.08 83 1011.1
20260505091758 27 75 11.3 14.5 0.00 0.08 0.08 82 1011.1
20260505091256 27 98 9.7 12.9 0.00 0.08 0.08 82 1011.1
20260505090754 27 102 9.7 11.3 0.00 0.08 0.08 82 1010.8
20260505090252 27 91 12.9 14.5 0.00 0.08 0.08 82 1010.8
20260505085749 28 97 9.7 14.5 0.00 0.08 0.08 81 1010.5
20260505085247 28 90 12.9 16.1 0.00 0.08 0.08 78 1010.5
20260505084744 28 82 12.9 16.1 0.00 0.08 0.08 79 1010.5
20260505084243 28 95 9.7 11.3 0.00 0.08 0.08 79 1010.5
20260505083739 28 101 9.7 12.9 0.00 0.08 0.08 81 1010.5
20260505083236 27 90 11.3 14.5 0.00 0.08 0.08 81 1010.5
20260505082732 28 91 11.3 12.9 0.00 0.08 0.08 82 1010.1
20260505082230 28 65 19.3 25.7 0.00 0.08 0.08 81 1010.1
20260505081725 28 101 16.1 20.9 0.00 0.08 0.08 81 1010.1
20260505081223 28 95 19.3 25.7 0.00 0.08 0.08 80 1010.1
20260505080720 28 109 16.1 22.5 0.00 0.08 0.08 78 1010.1
20260505080215 28 108 14.5 20.9 0.00 0.08 0.08 78 1010.1
20260505075711 28 102 12.9 16.1 0.00 0.08 0.08 78 1010.1
20260505075209 28 110 9.7 17.7 0.00 0.08 0.08 78 1009.8
20260505074706 28 99 11.3 14.5 0.00 0.08 0.08 77 1009.8
20260505074202 29 90 14.5 20.9 0.00 0.08 0.08 77 1009.8
20260505073700 29 86 11.3 16.1 0.00 0.08 0.08 76 1009.8
20260505073158 29 102 4.8 11.3 0.00 0.08 0.08 77 1009.8
20260505072653 29 95 11.3 14.5 0.00 0.08 0.08 77 1009.8
20260505072150 29 108 12.9 17.7 0.00 0.08 0.08 77 1010.1
20260505071646 29 102 8.0 12.9 0.00 0.08 0.08 77 1009.8
20260505071144 29 114 9.7 12.9 0.00 0.08 0.08 76 1009.8
20260505070641 30 93 12.9 17.7 0.00 0.08 0.08 74 1009.8
20260505070137 30 134 8.0 9.7 0.00 0.08 0.08 73 1009.8
20260505065633 30 119 12.9 20.9 0.00 0.08 0.08 72 1009.8
20260505065130 30 100 16.1 20.9 0.00 0.08 0.08 73 1009.8
20260505064627 30 90 16.1 20.9 0.00 0.08 0.08 73 1009.8
20260505064125 30 100 11.3 17.7 0.00 0.08 0.08 72 1009.8
20260505063622 30 104 14.5 19.3 0.00 0.08 0.08 72 1009.8
20260505063118 30 105 11.3 19.3 0.00 0.08 0.08 73 1009.8
20260505062614 30 93 11.3 14.5 0.00 0.08 0.08 74 1009.8
20260505062112 29 116 8.0 14.5 0.00 0.08 0.08 75 1009.8
20260505061609 30 108 14.5 19.3 0.00 0.08 0.08 75 1009.8
20260505061107 30 100 11.3 16.1 0.00 0.08 0.08 75 1009.8
20260505060604 30 121 14.5 19.3 0.00 0.08 0.08 75 1009.8
20260505055556 29 129 9.7 16.1 0.00 0.08 0.08 75 1009.8
20260505055053 30 87 14.5 19.3 0.00 0.08 0.08 75 1009.8
20260505054550 30 121 8.0 17.7 0.00 0.08 0.08 74 1009.8
20260505054049 30 121 12.9 17.7 0.00 0.08 0.08 73 1009.8
20260505053545 30 109 12.9 16.1 0.00 0.08 0.08 73 1009.8
20260505053042 30 76 9.7 19.3 0.00 0.08 0.08 73 1009.8
20260505052539 30 130 9.7 16.1 0.00 0.08 0.08 73 1010.1
20260505052037 30 122 14.5 20.9 0.00 0.08 0.08 73 1010.1
20260505051533 30 150 6.4 11.3 0.00 0.08 0.08 73 1010.1
20260505051031 30 100 9.7 12.9 0.00 0.08 0.08 73 1010.1
20260505050529 30 125 14.5 20.9 0.00 0.08 0.08 72 1010.5
20260505041457 30 137 9.7 16.1 0.00 0.08 0.08 72 1010.5
20260505040954 30 127 14.5 20.9 0.00 0.08 0.08 72 1010.5
20260505040451 31 153 6.4 20.9 0.00 0.08 0.08 71 1010.5
20260505035948 30 100 12.9 19.3 0.00 0.08 0.08 72 1010.5
20260505035444 30 109 16.1 20.9 0.00 0.08 0.08 72 1010.5
20260505034941 30 109 16.1 24.1 0.00 0.08 0.08 72 1010.5
20260505034438 30 118 12.9 20.9 0.00 0.08 0.08 73 1010.5